This is the latest recevied weather packets stored in our database for station/object EB1GOD-1. If no packets are shown the sender has not sent any weather packets the latest 10 day(s).
| Time | Temp. | Humidity | Pressure | Rain* | Wind** | Luminosity | Snow |
|---|---|---|---|---|---|---|---|
| 1777735021 | 16.11° C | 77% | 1152.9 hPa | - | - | - | - |
| 1777734121 | 15.56° C | 79% | 1152.9 hPa | - | - | - | - |
| 1777733221 | 16.11° C | 77% | 1152.9 hPa | - | - | - | - |
| 1777732321 | 17.22° C | 76% | 1153.1 hPa | - | - | - | - |
| 1777731421 | 16.67° C | 76% | 1153.3 hPa | - | - | - | - |
| 1777730521 | 16.67° C | 74% | 1153.2 hPa | - | - | - | - |
| 1777729621 | 16.67° C | 75% | 1153.1 hPa | - | - | - | - |
| 1777728721 | 16.67° C | 73% | 1153.2 hPa | - | - | - | - |
| 1777727821 | 16.67° C | 71% | 1153 hPa | - | - | - | - |
| 1777726921 | 16.67° C | 70% | 1152.9 hPa | - | - | - | - |
| 1777726021 | 16.67° C | 71% | 1153 hPa | - | - | - | - |
| 1777725121 | 17.78° C | 70% | 1152.9 hPa | - | - | - | - |
| 1777724228 | 17.22° C | 71% | 1152.8 hPa | - | - | - | - |
| 1777723326 | 16.67° C | 72% | 1152.8 hPa | - | - | - | - |
| 1777722423 | 16.67° C | 73% | 1152.9 hPa | - | - | - | - |
| 1777721520 | 17.22° C | 73% | 1153 hPa | - | - | - | - |
| 1777720618 | 17.22° C | 73% | 1153.2 hPa | - | - | - | - |
| 1777719718 | 16.67° C | 75% | 1153.1 hPa | - | - | - | - |
| 1777718818 | 16.67° C | 76% | 1153.2 hPa | - | - | - | - |
| 1777717918 | 16.67° C | 77% | 1153.4 hPa | - | - | - | - |
| 1777717018 | 16.67° C | 77% | 1153.7 hPa | - | - | - | - |
| 1777716118 | 16.67° C | 78% | 1153.8 hPa | - | - | - | - |
| 1777715218 | 16.67° C | 78% | 1153.9 hPa | - | - | - | - |
| 1777714318 | 16.67° C | 78% | 1154.1 hPa | - | - | - | - |
| 1777713418 | 16.67° C | 79% | 1154 hPa | - | - | - | - |
* Rain since midnight (hover to see other rain measurements)
** Current wind speed in m/s (hover to see current wind gust speed)